Location: Presov
(49.0000°N, 21.2500°E)
Time: 03:30:42
(UTC+02:00)

Altair - All Passes

Search period start: 21 April 2021 00:00
Search period end: 01 May 2021 00:00
Orbit: 1501 x 1683 km, 47.2° (Epoch: 20 April)

Date Brightness Start Highest point End Pass type
(mag) Time Alt. Az. Time Alt. Az. Time Alt. Az.
21 Apr - 04:36:42 10° S 04:44:31 27° SE 04:52:07 10° E visible
21 Apr - 06:38:20 10° SW 06:47:59 61° SSE 06:57:17 10° ENE daylight
21 Apr - 08:42:41 10° W 08:52:27 82° S 09:01:49 10° E daylight
21 Apr - 10:47:31 10° W 10:56:55 64° SSW 11:06:00 10° SE daylight
21 Apr - 12:52:43 10° W 13:00:21 29° SW 13:07:51 10° S daylight
22 Apr - 04:11:55 10° S 04:19:27 25° SE 04:26:48 10° E visible
22 Apr - 06:13:12 10° SW 06:22:51 59° SSE 06:32:07 10° ENE daylight
22 Apr - 08:17:28 10° W 08:27:16 81° S 08:36:40 10° E daylight
22 Apr - 10:22:18 10° W 10:31:47 67° SSW 10:40:55 10° ESE daylight
22 Apr - 12:27:25 10° W 12:35:19 32° SW 12:43:02 10° SSE daylight
23 Apr - 03:47:11 10° S 03:54:24 23° SE 04:01:28 10° E visible
23 Apr - 05:48:06 10° SW 05:57:42 56° SSE 06:06:57 10° ENE daylight
23 Apr - 07:52:15 10° W 08:02:05 81° S 08:11:31 10° E daylight
23 Apr - 09:57:06 10° W 10:06:38 69° SSW 10:15:50 10° ESE daylight
23 Apr - 12:02:08 10° WNW 12:10:16 34° SW 12:18:12 10° SSE daylight
24 Apr - 03:22:30 10° S 03:29:22 21° SE 03:36:05 10° E visible
24 Apr - 05:23:00 10° SW 05:32:33 54° SSE 05:41:47 10° ENE daylight
24 Apr - 07:27:01 10° WSW 07:36:53 80° S 07:46:21 10° E daylight
24 Apr - 09:31:53 10° W 09:41:29 71° SSW 09:50:44 10° ESE daylight
24 Apr - 11:36:53 10° WNW 11:45:13 36° SW 11:53:20 10° SSE daylight
25 Apr - 02:57:53 10° S 03:04:19 19° SE 03:10:39 10° E visible
25 Apr - 04:57:55 10° SW 05:07:25 51° SSE 05:16:36 10° ENE daylight
25 Apr - 07:01:48 10° WSW 07:11:42 79° S 07:21:12 10° E daylight
25 Apr - 09:06:39 10° W 09:16:20 73° SSW 09:25:37 10° ESE daylight
25 Apr - 11:11:37 10° WNW 11:20:09 39° SW 11:28:26 10° SSE daylight
25 Apr - 13:20:39 10° WSW 13:22:34 11° WSW 13:24:30 10° SW daylight
26 Apr - 02:33:20 10° SSE 02:39:18 18° SE 02:45:09 10° E visible
26 Apr - 04:32:52 10° SW 04:42:18 48° SSE 04:51:26 10° ENE visible
26 Apr - 06:36:35 10° WSW 06:46:31 78° S 06:56:03 10° E daylight
26 Apr - 08:41:26 10° W 08:51:10 75° SSW 09:00:30 10° ESE daylight
26 Apr - 10:46:22 10° WNW 10:55:04 42° SW 11:03:31 10° SSE daylight
26 Apr - 12:54:13 10° W 12:57:36 12° WSW 13:00:58 10° SW daylight
27 Apr - 02:08:54 10° SSE 02:14:16 16° SE 02:19:35 10° E visible
27 Apr - 04:07:49 10° SW 04:17:10 46° SE 04:26:15 10° ENE visible
27 Apr - 06:11:24 10° WSW 06:21:20 77° SSE 06:30:53 10° E daylight
27 Apr - 08:16:13 10° W 08:26:00 77° SSW 08:35:22 10° ESE daylight
27 Apr - 10:21:07 10° WNW 10:30:00 44° SW 10:38:35 10° SSE daylight
27 Apr - 12:28:18 10° W 12:32:38 14° SW 12:36:55 10° SSW daylight
28 Apr - 01:44:35 10° SSE 01:49:15 14° SE 01:53:53 10° E visible
28 Apr - 03:42:48 10° SSW 03:52:03 43° SE 04:01:03 10° ENE visible
28 Apr - 05:46:11 10° WSW 05:56:09 76° SSE 06:05:44 10° E daylight
28 Apr - 07:51:00 10° W 08:00:49 78° S 08:10:15 10° ESE daylight
28 Apr - 09:55:53 10° WNW 10:04:55 47° SW 10:13:37 10° SE daylight
28 Apr - 12:02:35 10° W 12:07:39 16° SW 12:12:39 10° SSW daylight
29 Apr - 01:20:29 10° SE 01:24:15 13° ESE 01:28:00 10° E visible
29 Apr - 03:17:48 10° SSW 03:26:56 41° SE 03:35:50 10° ENE visible
29 Apr - 05:20:59 10° WSW 05:30:57 74° SSE 05:40:34 10° E daylight
29 Apr - 07:25:46 10° W 07:35:38 79° S 07:45:06 10° ESE daylight
29 Apr - 09:30:39 10° WNW 09:39:48 50° SSW 09:48:38 10° SE daylight
29 Apr - 11:36:58 10° W 11:42:40 18° SW 11:48:15 10° SSW daylight
30 Apr - 00:56:47 10° SE 00:59:15 11° ESE 01:01:42 10° ESE visible
30 Apr - 02:52:49 10° SSW 03:01:50 39° SE 03:10:37 10° ENE visible
30 Apr - 04:55:48 10° WSW 05:05:46 72° SSE 05:15:24 10° E daylight
30 Apr - 07:00:32 10° W 07:10:27 80° S 07:19:58 10° ESE daylight
30 Apr - 09:05:25 10° WNW 09:14:42 52° SSW 09:23:38 10° SE daylight
30 Apr - 11:11:28 10° W 11:17:40 20° SW 11:23:45 10° S daylight
